Content
SEND FEEDBACK

Daily
Averages
Monthly
Summary
Turkmenistan

ASHGABAT, TURKMENISTAN


Home > Asia > Turkmenistan
Elevation: 775 feet     Latitude: 37 58N     Longitude: 058 20E

WEATHER
 
SELECT A DAY
Number of Records: 177,024;   Date Range: 3/15/97 - 7/7/14
 
SHARE

PRINT THIS DATA

[ ← Previous Day ]
WEATHER ALMANAC - MARCH 17, 2013
[ Next Day → ]
[ °C ]   °F
Weather ElementAverageHighLow
Temperature57.4 °F68 °F (2:00 pm)42.8 °F (7:00 am)
Dewpoint40.4 °F45 °F (11:00 pm)35 °F (2:00 am)
Humidity52.6 %81 % (7:00 am)26 % (2:00 pm)
Barometer29.92 in30.04 in (2:00 am)29.86 in (5:00 pm)
Wind Speed8.8 mph13.4 mph (12:00 pm)
Weather ElementAverage
Visibility6.2 mi
Wind DirectionESE (105.3 °)

Weather ElementTotal
Precipitation---
Heating Degree Days9.6 (Base 65)
Growing Degree Days5.4 (Base 50)
Averaged from 32 records on March 17, 2013
WEATHER CONDITIONS BREAKOUT
WIND DIRECTION BREAKOUT
WEATHER BY HOUR - MARCH 17, 2013
[ °C ]   °F
Local TimeTemperatureDewpointHumidityBarometerVisibilityWind DirectionWind SpeedGust SpeedPrecipitationEventsConditions
1:00 AM50.0 °F35.6 °F58 %30.01 in6.2 miESE (120°)6.7 mphClear
2:00 AM50.0 °F35.0 °F45 %30.04 in6.0 miESE (110°)6.7 mph
2:00 AM48.2 °F37.4 °F66 %30.01 in6.2 miESE (120°)8.9 mphClear
3:00 AM48.2 °F37.4 °F66 %29.98 in6.2 miEast (100°)6.7 mphClear
4:00 AM44.6 °F37.4 °F76 %29.98 in6.2 miESE (120°)6.7 mphClear
5:00 AM47.0 °F37.0 °F59 %29.99 in6.0 miEast (90°)6.7 mphClear
5:00 AM46.4 °F37.4 °F71 %29.95 in6.2 miESE (110°)8.9 mphScattered Clouds
7:00 AM42.8 °F37.4 °F81 %29.95 in6.2 miEast (90°)6.7 mphMostly Cloudy
8:00 AM44.6 °F39.2 °F81 %29.95 in6.2 miEast (90°)6.7 mphMostly Cloudy
8:00 AM44.0 °F36.0 °F66 %30.00 in6.0 miEast (80°)4.5 mphScattered Clouds
9:00 AM48.2 °F41.0 °F76 %29.95 in6.2 miEast (100°)8.9 mphMostly Cloudy
10:00 AM53.6 °F41.0 °F62 %29.95 in6.2 miEast (100°)11.2 mphMostly Cloudy
11:00 AM56.0 °F40.0 °F44 %29.97 in6.0 miSE (130°)11.2 mphClear
11:00 AM57.2 °F41.0 °F55 %29.95 in6.2 miESE (120°)8.9 mphMostly Cloudy
12:00 PM62.6 °F39.2 °F42 %29.92 in6.2 miESE (110°)13.4 mphScattered Clouds
1:00 PM66.2 °F39.2 °F37 %29.92 in6.2 miEast (90°)13.4 mphPartly Cloudy
2:00 PM68.0 °F41.0 °F37 %29.92 in6.2 miEast (100°)11.2 mphScattered Clouds
2:00 PM67.0 °F40.0 °F26 %29.91 in6.0 miESE (110°)13.4 mphClear
3:00 PM68.0 °F41.0 °F37 %29.89 in6.2 miEast (90°)11.2 mphScattered Clouds
4:00 PM68.0 °F41.0 °F37 %29.89 in6.2 miEast (90°)11.2 mphMostly Cloudy
5:00 PM68.0 °F43.0 °F28 %29.88 in6.0 miEast (100°)8.9 mphScattered Clouds
5:00 PM68.0 °F41.0 °F37 %29.86 in6.2 miEast (90°)8.9 mphMostly Cloudy
5:30 PM68.0 °F41.0 °F37 %29.86 in6.2 miEast (100°)11.2 mphMostly Cloudy
6:00 PM66.2 °F41.0 °F40 %29.86 in6.2 miEast (90°)8.9 mphOvercast
6:30 PM66.2 °F42.8 °F43 %29.86 in6.2 miESE (110°)8.9 mphOvercast
7:00 PM64.4 °F42.8 °F45 %29.86 in6.2 miEast (100°)6.7 mphOvercast
8:00 PM62.0 °F44.0 °F41 %29.88 in6.0 miESE (110°)6.7 mphOvercast
8:00 PM60.8 °F44.6 °F55 %29.86 in6.2 miESE (120°)8.9 mphOvercast
9:00 PM59.0 °F44.6 °F59 %29.86 in6.2 miSE (130°)6.7 mphMostly Cloudy
10:00 PM59.0 °F44.6 °F59 %29.86 in6.2 miSE (130°)6.7 mphScattered Clouds
11:00 PM57.0 °F45.0 °F55 %29.88 in6.0 miEast (100°)6.7 mphClear
11:00 PM57.2 °F44.6 °F63 %29.86 in6.2 miESE (120°)8.9 mphPartly Cloudy
Hourly data recorded from UTAA, located miles away from Ashgabat, Turkmenistan







STORIES FROM OUR PARTNERS